CDT,Max TemperatureF,Mean TemperatureF,Min TemperatureF,Max Dew PointF,MeanDew PointF,Min DewpointF,Max Humidity, Mean Humidity, Min Humidity, Max Sea Level PressureIn, Mean Sea Level PressureIn, Min Sea Level PressureIn, Max VisibilityMiles, Mean VisibilityMiles, Min VisibilityMiles, Max Wind SpeedMPH, Mean Wind SpeedMPH, Max Gust SpeedMPH,PrecipitationIn, CloudCover, Events, WindDirDegrees
2013-8-1,99,90,80,80,78,75,94,71,45,30.04,29.99,29.93,10,10,5,8,3,,0.00,1,,92
2013-8-2,104,92,79,79,76,73,90,63,37,29.97,29.93,29.87,10,10,7,9,6,,0.00,0,,157
2013-8-3,99,90,83,78,75,73,78,63,49,30.05,29.98,29.93,10,10,10,13,5,18,0.00,0,,143
2013-8-4,102,90,79,79,77,72,93,67,39,30.09,30.02,29.96,10,10,7,8,4,,0.00,1,,137
2013-8-5,104,92,79,77,74,70,89,59,34,30.00,29.94,29.85,10,10,10,10,5,17,0.00,0,,184
2013-8-6,104,94,83,76,72,69,69,52,35,29.92,29.87,29.80,10,10,10,12,6,16,0.00,0,,196
2013-8-7,104,93,83,79,73,71,73,54,35,29.91,29.85,29.79,10,10,10,10,5,,0.00,0,,170
2013-8-8,103,91,79,79,75,72,87,60,38,29.91,29.85,29.79,10,10,10,13,4,21,0.00,1,Rain-Thunderstorm,153
2013-8-9,102,90,78,78,74,66,91,65,31,29.98,29.92,29.87,10,10,10,9,5,,0.00,1,,84
2013-8-10,99,88,77,78,76,74,90,70,46,30.06,30.01,29.97,10,10,10,9,3,,0.00,3,,356
2013-8-11,101,90,78,78,74,67,92,65,33,30.08,30.02,29.97,10,10,7,9,3,,0.00,3,,145
2013-8-12,102,90,79,77,75,72,91,69,39,30.05,30.00,29.93,10,10,7,20,5,26,0.00,2,Rain-Thunderstorm,196
2013-8-13,93,85,77,77,75,73,95,79,54,30.04,29.98,29.93,10,10,10,10,4,,0.00,3,Rain-Thunderstorm,73
2013-8-14,91,83,76,74,71,68,91,71,50,30.07,30.02,29.97,10,10,10,13,4,18,0.00,5,,82
2013-8-15,90,78,67,67,63,59,82,59,39,30.11,30.05,29.98,10,10,10,10,5,16,0.00,0,,103
2013-8-16,87,78,69,66,64,63,82,64,44,30.11,30.04,29.98,10,10,10,10,5,16,0.00,1,Rain,103
2013-8-17,90,77,64,65,62,60,88,62,38,30.12,30.07,30.01,10,10,10,10,3,18,0.00,0,,52
2013-8-18,93,80,66,70,64,57,91,62,31,30.13,30.06,30.01,10,10,10,9,2,,0.00,1,,107
2013-8-19,95,82,70,71,65,58,93,59,30,30.12,30.04,29.97,10,10,10,9,5,,0.00,0,,116
2013-8-20,98,84,71,70,65,58,85,57,27,30.07,30.02,29.97,10,10,10,9,5,,0.00,0,,113
2013-8-21,100,86,72,72,67,62,88,57,29,30.11,30.05,30.00,10,10,10,8,4,,0.00,0,,119
2013-8-22,101,88,76,73,70,66,81,56,33,30.10,30.03,29.94,10,10,10,8,3,,0.00,2,,128
2013-8-23,102,89,77,75,72,67,84,64,34,30.05,30.00,29.94,10,10,10,15,3,21,0.00,1,Thunderstorm,82
2013-8-24,100,88,77,76,71,64,88,60,30,30.11,30.05,30.00,10,8,1,10,5,16,0.00,0,,101
2013-8-25,100,89,78,75,72,67,87,60,35,30.18,30.13,30.09,10,10,10,15,5,22,0.00,1,,116
2013-8-26,98,86,75,74,69,60,86,58,28,30.21,30.14,30.07,10,10,5,12,5,17,0.00,1,,118
2013-8-27,98,86,74,74,70,68,85,61,37,30.15,30.08,30.01,10,10,10,12,4,16,0.00,2,,194
2013-8-28,102,88,76,73,68,65,83,53,30,30.11,30.04,29.99,10,10,7,10,2,16,0.00,2,,225
2013-8-29,104,89,75,73,69,64,84,53,28,30.08,30.02,29.96,10,10,10,6,1,,0.00,1,,141
2013-8-30,105,91,77,71,68,64,77,47,26,30.03,29.95,29.87,10,10,10,8,3,,0.00,0,,177
2013-8-31,107,92,77,73,69,63,77,53,24,29.93,29.87,29.80,10,10,10,14,2,23,0.00,1,Rain-Thunderstorm,139